TimePST,TemperatureF,Dew PointF,Humidity,Sea Level PressureIn,VisibilityMPH,Wind Direction,Wind SpeedMPH,Gust SpeedMPH,PrecipitationIn,Events,Conditions,WindDirDegrees,DateUTC
12:53 AM,34.0,27.0,75,30.27,10.0,NNE,8.1,-,N/A,,Clear,30,2006-10-31 08:53:00
1:53 AM,33.1,28.0,82,30.27,10.0,NE,10.4,-,N/A,,Clear,50,2006-10-31 09:53:00
2:53 AM,32.0,28.9,88,30.27,10.0,NE,10.4,-,N/A,,Clear,50,2006-10-31 10:53:00
3:53 AM,32.0,28.4,87,30.23,10.0,NE,9.2,-,N/A,,Partly Cloudy,50,2006-10-31 11:53:00
4:33 AM,30.2,28.4,93,30.24,0.5,NE,11.5,-,N/A,,Mostly Cloudy,50,2006-10-31 12:33:00
4:39 AM,30.2,28.4,93,30.24,0.5,NE,12.7,-,N/A,,Overcast,40,2006-10-31 12:39:00
4:51 AM,30.2,30.2,100,30.24,0.5,NE,9.2,-,N/A,,Mostly Cloudy,40,2006-10-31 12:51:00
4:53 AM,30.0,28.9,96,30.27,0.5,NE,9.2,-,N/A,,Mostly Cloudy,40,2006-10-31 12:53:00
5:01 AM,30.2,28.4,93,30.24,10.0,NE,9.2,-,N/A,,Partly Cloudy,40,2006-10-31 13:01:00
5:53 AM,32.0,28.0,85,30.28,10.0,NE,10.4,-,N/A,,Clear,40,2006-10-31 13:53:00
6:49 AM,32.0,30.2,93,30.25,8.0,NNE,10.4,-,N/A,,Partly Cloudy,30,2006-10-31 14:49:00
6:53 AM,32.0,30.0,92,30.29,1.5,NNE,9.2,-,N/A,,Scattered Clouds,20,2006-10-31 14:53:00
6:59 AM,30.2,30.2,100,30.26,7.0,NNE,9.2,-,N/A,,Partly Cloudy,20,2006-10-31 14:59:00
7:53 AM,33.1,30.0,89,30.30,10.0,North,6.9,-,N/A,,Partly Cloudy,10,2006-10-31 15:53:00
8:53 AM,37.0,28.0,70,30.30,10.0,NNE,6.9,-,N/A,,Partly Cloudy,20,2006-10-31 16:53:00
9:53 AM,39.9,27.0,60,30.30,10.0,North,10.4,-,N/A,,Partly Cloudy,350,2006-10-31 17:53:00
10:53 AM,42.1,26.1,53,30.29,10.0,North,13.8,-,N/A,,Clear,10,2006-10-31 18:53:00
11:53 AM,44.1,25.0,47,30.28,10.0,North,11.5,-,N/A,,Clear,360,2006-10-31 19:53:00
12:53 PM,45.0,24.1,44,30.26,10.0,NNE,13.8,-,N/A,,Clear,30,2006-10-31 20:53:00
1:53 PM,46.0,28.0,50,30.26,10.0,North,11.5,-,N/A,,Clear,350,2006-10-31 21:53:00
2:53 PM,46.0,30.9,56,30.25,10.0,North,11.5,-,N/A,,Partly Cloudy,360,2006-10-31 22:53:00
3:53 PM,46.9,25.0,42,30.25,10.0,North,12.7,-,N/A,,Partly Cloudy,10,2006-10-31 23:53:00
4:53 PM,43.0,27.0,53,30.24,10.0,NNE,10.4,-,N/A,,Partly Cloudy,20,2006-11-01 00:53:00
5:53 PM,42.1,27.0,55,30.24,10.0,NNE,11.5,-,N/A,,Partly Cloudy,30,2006-11-01 01:53:00
6:53 PM,41.0,28.9,62,30.25,10.0,NNE,13.8,-,N/A,,Clear,30,2006-11-01 02:53:00
7:53 PM,39.9,28.9,65,30.24,10.0,NE,12.7,-,N/A,,Clear,40,2006-11-01 03:53:00
8:53 PM,39.0,28.0,65,30.23,10.0,NNE,11.5,-,N/A,,Clear,30,2006-11-01 04:53:00
9:53 PM,39.0,26.1,60,30.22,10.0,NE,11.5,-,N/A,,Clear,40,2006-11-01 05:53:00
10:53 PM,39.0,25.0,57,30.22,10.0,NNE,10.4,-,N/A,,Clear,30,2006-11-01 06:53:00
11:53 PM,37.9,25.0,60,30.20,10.0,NE,10.4,-,N/A,,Partly Cloudy,40,2006-11-01 07:53:00